Change the Weather History Date:

Monday, August 4, 2014

  Actual Average (KHRO) Record (KHRO)
Temperature  
Mean Temperature 78 °F 79 °F  
Max Temperature 93 °F 90 °F 107 °F (1918)
Min Temperature 62 °F 68 °F 45 °F (1912)
Degree Days  
Heating Degree Days 0 0  
Month to date heating degree days 0  
Since 1 June heating degree days 6  
Since 1 July heating degree days 0  
Cooling Degree Days 12 14  
Month to date cooling degree days 56  
Year to date cooling degree days 874  
Since 1 June cooling degree days 735  
Growing Degree Days 28 (Base 50)    
Moisture  
Dew Point 64 °F    
Average Humidity 77    
Maximum Humidity 100    
Minimum Humidity 38    
Precipitation  
Precipitation 0.00 in 0.13 in 1.24 in (1998)
Month to date precipitation 0.51  
Year to date precipitation 25.89  
Snow  
Snow 0.00 in 0.00 in - ()
Month to date snowfall 0.0  
Since 1 June snowfall 0.0  
Since 1 July snowfall 0.0  
Snow Depth -    
Sea Level Pressure  
Sea Level Pressure 30.12 in    
Wind  
Wind Speed 1 mph (South)    
Max Wind Speed 7 mph    
Max Gust Speed -    
Visibility 10 miles    
Events Rain    
T = Trace of Precipitation, MM = Missing Value Source: NWS Daily Summary

Daily Weather History Graph

Daily Weather History Graph

Search for Another Location

Airport or City:

Trip Planner

Search our weather history database for the weather conditions in past years. The results will help you decide how hot, cold, wet, or windy it might be!

Date:

Astronomy

Aug. 04, 2014 Rise Set
Actual Time 6:21 AM CDT 8:15 PM CDT
Civil Twilight 5:53 AM CDT 8:43 PM CDT
Nautical Twilight 5:18 AM CDT 9:18 PM CDT
Astronomical Twilight 4:42 AM CDT 9:54 PM CDT
Moon 2:29 PM CDT (8/4) 12:27 AM CDT (8/4)
Length of Visible Light 14h 50m
Length of Day
13h 54m
First Quarter, 57% of the Moon is Illuminated
Aug 4
First Quarter
Aug 10
Full
Aug 17
Last Quarter
Aug 25
New
Sep 2
First Quarter

Hourly Weather History & Observations

Time (CDT) Temp. Heat Index Dew Point Humidity Pressure Visibility Wind Dir Wind Speed Gust Speed Precip Events Conditions
12:15 AM 68.0 °F - 64.4 °F 88% 30.13 in 10.0 mi Calm Calm - N/A   Clear
12:35 AM 66.2 °F - 64.4 °F 94% 30.14 in 10.0 mi Calm Calm - N/A   Clear
12:55 AM 68.0 °F - 64.4 °F 88% 30.13 in 10.0 mi South 4.6 mph - N/A   Clear
1:15 AM 68.0 °F - 64.4 °F 88% 30.13 in 10.0 mi Calm Calm - N/A   Clear
1:35 AM 66.2 °F - 64.4 °F 94% 30.13 in 10.0 mi ESE 3.5 mph - N/A   Partly Cloudy
1:55 AM 66.2 °F - 64.4 °F 94% 30.13 in 10.0 mi Calm Calm - N/A   Partly Cloudy
2:15 AM 66.2 °F - 64.4 °F 94% 30.13 in 10.0 mi Calm Calm - N/A   Clear
2:35 AM 64.4 °F - 62.6 °F 94% 30.13 in 10.0 mi Calm Calm - N/A   Clear
2:55 AM 64.4 °F - 62.6 °F 94% 30.13 in 10.0 mi Calm Calm - N/A   Clear
3:15 AM 64.4 °F - 62.6 °F 94% 30.13 in 10.0 mi Calm Calm - N/A   Clear
3:35 AM 64.4 °F - 62.6 °F 94% 30.13 in 10.0 mi Calm Calm - N/A   Clear
3:55 AM 64.4 °F - 62.6 °F 94% 30.12 in 10.0 mi Calm Calm - N/A   Partly Cloudy
4:15 AM 64.4 °F - 62.6 °F 94% 30.12 in 10.0 mi Calm Calm - N/A   Scattered Clouds
4:35 AM 64.4 °F - 62.6 °F 94% 30.13 in 10.0 mi ESE 3.5 mph - N/A   Scattered Clouds
4:55 AM 64.4 °F - 62.6 °F 94% 30.13 in 10.0 mi Calm Calm - N/A Rain Light Rain
5:15 AM 62.6 °F - 62.6 °F 100% 30.13 in 10.0 mi Calm Calm - N/A   Scattered Clouds
5:35 AM 62.6 °F - 62.6 °F 100% 30.13 in 10.0 mi Calm Calm - N/A   Partly Cloudy
5:55 AM 62.6 °F - 60.8 °F 94% 30.14 in 10.0 mi Calm Calm - N/A   Partly Cloudy
6:15 AM 62.6 °F - 62.6 °F 100% 30.14 in 10.0 mi Calm Calm - N/A   Clear
6:35 AM 62.6 °F - 62.6 °F 100% 30.14 in 10.0 mi Calm Calm - N/A   Clear
7:45 AM 66.2 °F - 66.2 °F 100% 30.16 in 10.0 mi Calm Calm - N/A   Mostly Cloudy
8:45 AM 75.2 °F - 71.6 °F 89% 30.17 in 10.0 mi Calm Calm - N/A   Mostly Cloudy
9:45 AM 82.4 °F 83.9 °F 64.4 °F 54% 30.17 in 10.0 mi South 3.5 mph - N/A   Mostly Cloudy
11:45 AM 87.8 °F 87.6 °F 60.8 °F 40% 30.17 in 10.0 mi Calm Calm - N/A   Mostly Cloudy
12:45 PM 87.8 °F 88.5 °F 62.6 °F 43% 30.15 in 10.0 mi Calm Calm - N/A   Mostly Cloudy
1:45 PM 89.6 °F 90.1 °F 62.6 °F 40% 30.13 in 10.0 mi North 5.8 mph - N/A   Mostly Cloudy
2:45 PM 86.0 °F 86.6 °F 62.6 °F 45% 30.11 in 10.0 mi NE 5.8 mph - N/A   Scattered Clouds
3:47 PM 91.4 °F 93.2 °F 64.4 °F 41% 30.09 in 10.0 mi SW 4.6 mph - N/A   Mostly Cloudy
4:45 PM 93.2 °F 94.9 °F 64.4 °F 38% 30.09 in 10.0 mi West 4.6 mph - N/A   Mostly Cloudy
5:55 PM 89.6 °F 91.1 °F 64.4 °F 43% 30.08 in 10.0 mi Calm Calm - N/A   Partly Cloudy
6:50 PM 86.0 °F 87.3 °F 64.4 °F 48% 30.07 in 10.0 mi Calm Calm - N/A   Clear
7:45 PM 82.4 °F 84.6 °F 66.2 °F 58% 30.07 in 10.0 mi Calm Calm - N/A   Clear
8:55 PM 77.0 °F - 66.2 °F 69% 30.08 in 10.0 mi South 6.9 mph - N/A   Clear
9:15 PM 77.0 °F - 64.4 °F 65% 30.09 in 10.0 mi South 5.8 mph - N/A   Clear
9:35 PM 75.2 °F - 64.4 °F 69% 30.09 in 10.0 mi South 5.8 mph - N/A   Clear
9:55 PM 75.2 °F - 64.4 °F 69% 30.10 in 10.0 mi South 4.6 mph - N/A   Clear
10:35 PM 75.2 °F - 64.4 °F 69% 30.10 in 10.0 mi South 5.8 mph - N/A   Clear
10:55 PM 73.4 °F - 64.4 °F 73% 30.11 in 10.0 mi South 4.6 mph - N/A   Clear
11:15 PM 73.4 °F - 64.4 °F 73% 30.11 in 10.0 mi South 4.6 mph - N/A   Clear
11:35 PM 73.4 °F - 64.4 °F 73% 30.11 in 10.0 mi South 4.6 mph - N/A   Clear
11:55 PM 73.4 °F - 62.6 °F 69% 30.11 in 10.0 mi South 4.6 mph - N/A   Clear